Flag for Germany Weather past 2 weeks in Wunstorf, Lower Saxony, Germany

Now
-31 °F

Extremely cold.


Feels Like: -46 °F
Forecast: 62 / 79 °F
Wind: 5 mph from North

Location: Wunstorf Airport

Current Time: Jul 25, 2014 at 8:27:53 PM

Latest Report: Jul 25, 2014 at 7:20 PM


Visibility: 2 mi

Pressure: 29.95 "Hg

Humidity: 100%

Dew point: -31 °F

Location of WunstorfLocation

Historic Weather in Wunstorf — Graph

°F

Wunstorf temperature yesterday

Maximum temperature yesterday: 75 °F (at 1:20 PM)
Minimum temperature yesterday: 57 °F (at 5:20 AM)
Average temperature yesterday: 66 °F

Past Weeks' High & Low Weather Summary

 TemperatureHumidityPressure
High90 °F (Jul 19, 2:20 PM)100% (Jul 16, 5:20 AM)30.18 "Hg (Jul 16, 5:20 AM)
Low-31 °F (Jul 25, 2:20 PM)31% (Jul 19, 2:20 PM)29.68 "Hg (Jul 13, 6:20 PM)
Average67 °F70%29.97 "Hg
* Reported Jul 10 7:20 PM — Jul 25 7:20 PM, Wunstorf, Weather by CustomWeather, © 2014

Note: Actual official high and low records may vary slightly from our data, if they occured in-between our weather recording intervals... More about our weather records

Advertising

Wunstorf weather history for previous 24 hours

 ConditionsComfort  
Time TempWeatherWind HumidityBarometerVisibility
7:20 PM
Jul 25
-31 °FExtremely cold.5 mph100%29.95 "Hg1 mi
6:20 PM-31 °FExtremely cold.3 mph100%29.95 "Hg2 mi
5:20 PM-31 °FExtremely cold.6 mph90%29.95 "Hg2 mi
4:20 PM-31 °FExtremely cold.7 mph90%29.98 "Hg2 mi
3:20 PM-31 °FExtremely cold.8 mph90%29.98 "Hg3 mi
2:20 PM-31 °FExtremely cold.1 mph90%29.98 "Hg2 mi
1:20 PM64 °FMild.3 mph94%29.98 "Hg2 mi
12:20 PM63 °FMild.6 mph94%29.98 "Hg2 mi
11:54 AM61 °FRain. Fog.7 mph100%29.98 "Hg1 mi
11:20 AM61 °FRain. Fog.5 mph100%29.98 "Hg2 mi
11:03 AM61 °FRain. Fog.6 mph100%29.98 "Hg2 mi
10:20 AM61 °FLight rain. Fog.3 mph94%29.98 "Hg2 mi
9:20 AM59 °FRain. Fog.6 mph100%29.98 "Hg2 mi
8:58 AM59 °FRain. Fog.6 mph100%29.98 "Hg2 mi
8:20 AM59 °FRain. Fog.6 mph100%30.01 "Hg2 mi
7:20 AM59 °FRain. Fog.6 mph100%30.01 "Hg3 mi
6:59 AM59 °FRain. Fog.7 mph100%30.01 "Hg3 mi
6:20 AM59 °FLight rain. Fog.7 mph100%30.01 "Hg3 mi
5:20 AM59 °FRain. Fog.6 mph94%30.01 "Hg3 mi
4:20 AM59 °FCool.6 mph94%30.01 "Hg2 mi
3:20 AM59 °FCool.5 mph94%30.01 "Hg3 mi
2:20 AM61 °FCool.3 mph88%30.04 "Hg3 mi
1:20 AM59 °FCool.6 mph94%30.04 "Hg3 mi
12:20 AM61 °FCool.3 mph94%30.04 "Hg3 mi
11:20 PM
Jul 24
61 °FCool.2 mph94%30.04 "Hg3 mi
10:20 PM61 °FCool.6 mph94%30.07 "Hg3 mi
9:20 PM61 °FCool.7 mph88%30.07 "Hg3 mi
8:20 PM61 °FCool.2 mph88%30.04 "Hg3 mi
Weather by CustomWeather, © 2014

See weather overviewHow to use our weather pages